Simultaneous Nadir Overpasses (SNOs) Predictions

Prediction of SNOs between GOES-17 and NOAA-19 Satellite Orbit:

Table of predicted SNOs for the next 14.0 days since TLE Epoch: 4/27/2024
Index Date Time (GOES-17) GOES-17 Lat,Lon NOAA-19 Lat,Lon Distance(km) Time Diff (sec)
1 04/27/2024 04:14:55 0.01,-104.70 0.00,-105.62 102.71 80
2 04/28/2024 03:59:57 0.01,-104.69 0.47,-102.59 239.40 80
3 04/30/2024 16:19:21 -0.00,-104.70 0.60,-107.21 287.54 80
4 05/01/2024 16:09:47 -0.00,-104.70 -0.11,-104.24 52.18 80
5 05/02/2024 15:57:32 -0.00,-104.69 -0.77,-101.26 391.97 80
6 05/04/2024 04:29:30 0.00,-104.68 -0.95,-108.94 484.90 80
7 05/05/2024 04:17:14 0.00,-104.68 -0.27,-105.96 144.86 80
8 05/06/2024 04:02:19 -0.00,-104.68 0.42,-102.98 195.31 80
9 05/08/2024 16:21:43 0.01,-104.69 0.69,-107.59 331.16 80
10 05/09/2024 16:12:07 0.01,-104.69 0.00,-104.61 8.95 80
11 05/10/2024 15:59:52 0.01,-104.68 -0.69,-101.63 348.87 80
